Time,TemperatureF,DewpointF,PressureIn,WindDirection,WindDirectionDegrees,WindSpeedMPH,WindSpeedGustMPH,Humidity,HourlyPrecipIn,Conditions,Clouds,dailyrainin,SolarRadiationWatts/m^2,SoftwareType,DateUTC
2013-11-21 00:02:00,20.1,-0.9,30.45,SSW,213,1.0,3.0,39,0.00,,---,0.00,0.00,VWS V14.01,2013-11-21 08:02:00,
2013-11-21 00:07:00,20.0,-1.0,30.45,SW,215,2.0,5.0,39,0.00,,---,0.00,0.00,VWS V14.01,2013-11-21 08:07:00,
2013-11-21 00:12:00,19.9,-1.0,30.45,SW,217,1.0,5.0,39,0.00,,---,0.00,0.00,VWS V14.01,2013-11-21 08:12:00,
2013-11-21 00:17:00,19.9,-1.0,30.45,South,182,5.0,6.0,39,0.00,,---,0.00,0.00,VWS V14.01,2013-11-21 08:17:00,
2013-11-21 00:22:00,20.0,-0.4,30.46,South,191,2.0,6.0,40,0.00,,---,0.00,0.00,VWS V14.01,2013-11-21 08:22:00,
2013-11-21 00:27:00,20.0,-1.0,30.46,WSW,240,3.0,6.0,39,0.00,,---,0.00,0.00,VWS V14.01,2013-11-21 08:27:00,
2013-11-21 00:32:00,20.0,-1.0,30.46,SSW,195,2.0,4.0,39,0.00,,---,0.00,0.00,VWS V14.01,2013-11-21 08:32:00,
2013-11-21 00:37:00,20.0,-1.0,30.46,SW,227,2.0,5.0,39,0.00,,---,0.00,0.00,VWS V14.01,2013-11-21 08:37:00,
2013-11-21 00:42:00,19.9,-1.0,30.46,SW,235,3.0,5.0,39,0.00,,---,0.00,0.00,VWS V14.01,2013-11-21 08:42:00,
2013-11-21 00:47:00,19.9,-1.0,30.46,SW,232,3.0,5.0,39,0.00,,---,0.00,0.00,VWS V14.01,2013-11-21 08:47:00,
2013-11-21 00:52:00,20.0,-1.0,30.46,SSW,196,0.0,5.0,39,0.00,,---,0.00,0.00,VWS V14.01,2013-11-21 08:52:00,
2013-11-21 00:57:00,19.8,-1.1,30.46,SW,216,1.0,5.0,39,0.00,,---,0.00,0.00,VWS V14.01,2013-11-21 08:57:00,
2013-11-21 01:02:00,19.6,-1.3,30.46,SW,217,2.0,3.0,39,0.00,,---,0.00,0.00,VWS V14.01,2013-11-21 09:02:00,
2013-11-21 01:07:00,19.4,-1.0,30.46,South,190,2.0,4.0,40,0.00,,---,0.00,0.00,VWS V14.01,2013-11-21 09:07:00,
2013-11-21 01:12:00,19.4,-1.5,30.46,SW,221,1.0,4.0,39,0.00,,---,0.00,0.00,VWS V14.01,2013-11-21 09:12:00,
2013-11-21 01:17:00,19.4,-1.0,30.47,SW,232,1.0,4.0,40,0.00,,---,0.00,0.00,VWS V14.01,2013-11-21 09:17:00,
2013-11-21 01:22:00,19.3,-1.1,30.47,WSW,241,2.0,4.0,40,0.00,,---,0.00,0.00,VWS V14.01,2013-11-21 09:22:00,
2013-11-21 01:27:00,19.3,-1.1,30.47,SW,224,2.0,4.0,40,0.00,,---,0.00,0.00,VWS V14.01,2013-11-21 09:27:00,
2013-11-21 01:32:00,19.2,-1.1,30.47,SW,228,2.0,4.0,40,0.00,,---,0.00,0.00,VWS V14.01,2013-11-21 09:32:00,
2013-11-21 01:37:00,19.3,-1.1,30.48,WSW,245,1.0,4.0,40,0.00,,---,0.00,0.00,VWS V14.01,2013-11-21 09:37:00,
2013-11-21 01:42:00,19.3,-1.1,30.48,SW,221,2.0,4.0,40,0.00,,---,0.00,0.00,VWS V14.01,2013-11-21 09:42:00,
2013-11-21 01:47:00,19.3,-1.1,30.48,SW,215,3.0,4.0,40,0.00,,---,0.00,0.00,VWS V14.01,2013-11-21 09:47:00,
2013-11-21 01:52:00,19.3,-1.1,30.49,SW,219,1.0,5.0,40,0.00,,---,0.00,0.00,VWS V14.01,2013-11-21 09:52:00,
2013-11-21 01:57:00,19.3,-1.1,30.49,SW,228,2.0,5.0,40,0.00,,---,0.00,0.00,VWS V14.01,2013-11-21 09:57:00,
2013-11-21 02:01:00,19.2,-1.1,30.49,SW,229,3.0,4.0,40,0.00,,---,0.00,0.00,VWS V14.01,2013-11-21 10:01:00,
2013-11-21 02:06:00,19.1,-0.7,30.49,SW,234,2.0,4.0,41,0.00,,---,0.00,0.00,VWS V14.01,2013-11-21 10:06:00,
2013-11-21 02:11:00,19.0,-0.8,30.50,SW,234,2.0,4.0,41,0.00,,---,0.00,0.00,VWS V14.01,2013-11-21 10:11:00,
2013-11-21 02:16:00,18.9,-0.9,30.50,WSW,244,3.0,4.0,41,0.00,,---,0.00,0.00,VWS V14.01,2013-11-21 10:16:00,
2013-11-21 02:21:00,18.9,-1.4,30.50,WSW,237,3.0,5.0,40,0.00,,---,0.00,0.00,VWS V14.01,2013-11-21 10:21:00,
2013-11-21 02:26:00,18.9,-1.4,30.51,SW,233,2.0,5.0,40,0.00,,---,0.00,0.00,VWS V14.01,2013-11-21 10:26:00,
2013-11-21 02:31:00,18.8,-1.5,30.51,WSW,240,2.0,2.0,40,0.00,,---,0.00,0.00,VWS V14.01,2013-11-21 10:31:00,
2013-11-21 02:36:00,18.7,-1.1,30.51,WSW,246,1.0,3.0,41,0.00,,---,0.00,0.00,VWS V14.01,2013-11-21 10:36:00,
2013-11-21 02:41:00,18.7,-1.6,30.51,SSW,211,0.0,5.0,40,0.00,,---,0.00,0.00,VWS V14.01,2013-11-21 10:41:00,
2013-11-21 02:46:00,18.5,-1.3,30.51,South,187,0.0,5.0,41,0.00,,---,0.00,0.00,VWS V14.01,2013-11-21 10:46:00,
2013-11-21 02:51:00,18.4,-1.4,30.51,SSW,207,0.0,5.0,41,0.00,,---,0.00,0.00,VWS V14.01,2013-11-21 10:51:00,
2013-11-21 02:56:00,18.3,-1.5,30.51,SW,220,0.0,5.0,41,0.00,,---,0.00,0.00,VWS V14.01,2013-11-21 10:56:00,
2013-11-21 03:01:00,18.2,-1.5,30.52,SW,225,0.0,1.0,41,0.00,,---,0.00,0.00,VWS V14.01,2013-11-21 11:01:00,
2013-11-21 03:06:00,18.2,-1.5,30.52,SW,225,0.0,2.0,41,0.00,,---,0.00,0.00,VWS V14.01,2013-11-21 11:06:00,
2013-11-21 03:11:00,18.1,-1.6,30.52,SW,232,1.0,2.0,41,0.00,,---,0.00,0.00,VWS V14.01,2013-11-21 11:11:00,
2013-11-21 03:16:00,18.0,-1.7,30.52,SW,231,1.0,3.0,41,0.00,,---,0.00,0.00,VWS V14.01,2013-11-21 11:16:00,
2013-11-21 03:21:00,18.0,-1.2,30.53,SSW,197,1.0,4.0,42,0.00,,---,0.00,0.00,VWS V14.01,2013-11-21 11:21:00,
2013-11-21 03:26:00,18.0,-1.2,30.53,WSW,238,2.0,4.0,42,0.00,,---,0.00,0.00,VWS V14.01,2013-11-21 11:26:00,
2013-11-21 03:31:00,17.9,-0.8,30.53,South,191,4.0,4.0,43,0.00,,---,0.00,0.00,VWS V14.01,2013-11-21 11:31:00,
2013-11-21 03:36:00,17.9,-0.8,30.54,SW,225,3.0,7.0,43,0.00,,---,0.00,0.00,VWS V14.01,2013-11-21 11:36:00,
2013-11-21 03:41:00,17.9,-0.8,30.54,SW,234,1.0,7.0,43,0.00,,---,0.00,0.00,VWS V14.01,2013-11-21 11:41:00,
2013-11-21 03:46:00,18.0,-0.7,30.54,SW,221,1.0,7.0,43,0.00,,---,0.00,0.00,VWS V14.01,2013-11-21 11:46:00,
2013-11-21 03:51:00,18.0,-0.7,30.54,SSW,201,3.0,7.0,43,0.00,,---,0.00,0.00,VWS V14.01,2013-11-21 11:51:00,
2013-11-21 03:56:00,17.9,-0.3,30.54,SW,215,1.0,7.0,44,0.00,,---,0.00,0.00,VWS V14.01,2013-11-21 11:56:00,
2013-11-21 04:01:00,17.8,-0.4,30.55,South,189,2.0,5.0,44,0.00,,---,0.00,0.00,VWS V14.01,2013-11-21 12:01:00,
2013-11-21 04:06:00,17.7,-0.5,30.55,SSW,192,0.0,5.0,44,0.00,,---,0.00,0.00,VWS V14.01,2013-11-21 12:06:00,
2013-11-21 04:11:00,17.6,-0.6,30.55,WSW,237,2.0,5.0,44,0.00,,---,0.00,0.00,VWS V14.01,2013-11-21 12:11:00,
2013-11-21 04:16:00,17.5,-0.2,30.55,SW,218,0.0,5.0,45,0.00,,---,0.00,0.00,VWS V14.01,2013-11-21 12:16:00,
2013-11-21 04:21:00,17.4,-0.3,30.56,SW,221,0.0,5.0,45,0.00,,---,0.00,0.00,VWS V14.01,2013-11-21 12:21:00,
2013-11-21 04:26:00,17.2,-0.5,30.56,SSW,203,2.0,5.0,45,0.00,,---,0.00,0.00,VWS V14.01,2013-11-21 12:26:00,
2013-11-21 04:31:00,17.1,-0.1,30.56,SSW,202,1.0,1.0,46,0.00,,---,0.00,0.00,VWS V14.01,2013-11-21 12:31:00,
2013-11-21 04:36:00,16.9,-0.3,30.56,SW,216,0.0,3.0,46,0.00,,---,0.00,0.00,VWS V14.01,2013-11-21 12:36:00,
2013-11-21 04:41:00,16.8,0.1,30.57,SSW,208,1.0,3.0,47,0.00,,---,0.00,0.00,VWS V14.01,2013-11-21 12:41:00,
2013-11-21 04:46:00,16.8,0.1,30.57,SW,221,2.0,3.0,47,0.00,,---,0.00,0.00,VWS V14.01,2013-11-21 12:46:00,
2013-11-21 04:51:00,16.7,0.0,30.58,SSW,208,1.0,3.0,47,0.00,,---,0.00,0.00,VWS V14.01,2013-11-21 12:51:00,
2013-11-21 04:56:00,16.6,-0.1,30.58,SSW,200,2.0,3.0,47,0.00,,---,0.00,0.00,VWS V14.01,2013-11-21 12:56:00,
2013-11-21 05:01:00,16.6,-0.1,30.58,SW,234,0.0,3.0,47,0.00,,---,0.00,0.00,VWS V14.01,2013-11-21 13:01:00,
2013-11-21 05:06:00,16.6,-0.1,30.58,SSW,211,0.0,3.0,47,0.00,,---,0.00,0.00,VWS V14.01,2013-11-21 13:06:00,
2013-11-21 05:11:00,16.6,-0.1,30.58,SW,222,0.0,4.0,47,0.00,,---,0.00,0.00,VWS V14.01,2013-11-21 13:11:00,
2013-11-21 05:16:00,16.6,-0.1,30.59,SW,215,0.0,4.0,47,0.00,,---,0.00,0.00,VWS V14.01,2013-11-21 13:16:00,
2013-11-21 05:21:00,16.6,-0.1,30.59,SSW,199,2.0,4.0,47,0.00,,---,0.00,0.00,VWS V14.01,2013-11-21 13:21:00,
2013-11-21 05:26:00,16.7,0.4,30.59,SW,234,2.0,4.0,48,0.00,,---,0.00,0.00,VWS V14.01,2013-11-21 13:26:00,
2013-11-21 05:31:00,16.7,0.4,30.59,SW,222,3.0,4.0,48,0.00,,---,0.00,0.00,VWS V14.01,2013-11-21 13:31:00,
2013-11-21 05:36:00,17.0,0.3,30.59,SW,236,3.0,4.0,47,0.00,,---,0.00,0.00,VWS V14.01,2013-11-21 13:36:00,
2013-11-21 05:41:00,17.2,0.4,30.59,SW,227,2.0,5.0,47,0.00,,---,0.00,0.00,VWS V14.01,2013-11-21 13:41:00,
2013-11-21 05:46:00,17.4,0.2,30.59,SW,226,2.0,5.0,46,0.00,,---,0.00,0.00,VWS V14.01,2013-11-21 13:46:00,
2013-11-21 05:51:00,17.6,0.3,30.59,WSW,245,3.0,5.0,46,0.00,,---,0.00,0.00,VWS V14.01,2013-11-21 13:51:00,
2013-11-21 05:56:00,17.7,0.4,30.59,WSW,240,2.0,5.0,46,0.00,,---,0.00,0.00,VWS V14.01,2013-11-21 13:56:00,
2013-11-21 06:03:00,17.9,-0.3,30.59,SSW,198,2.0,2.0,44,0.00,,---,0.00,0.00,VWS V14.01,2013-11-21 14:03:00,
2013-11-21 06:08:00,17.9,-0.3,30.59,SSW,193,2.0,4.0,44,0.00,,---,0.00,0.00,VWS V14.01,2013-11-21 14:08:00,
2013-11-21 06:13:00,17.9,-0.8,30.60,SW,233,1.0,4.0,43,0.00,,---,0.00,0.00,VWS V14.01,2013-11-21 14:13:00,
2013-11-21 06:18:00,17.9,-0.8,30.60,SW,232,2.0,5.0,43,0.00,,---,0.00,0.00,VWS V14.01,2013-11-21 14:18:00,
2013-11-21 06:23:00,17.9,-0.8,30.60,SW,234,2.0,5.0,43,0.00,,---,0.00,0.00,VWS V14.01,2013-11-21 14:23:00,
2013-11-21 06:28:00,17.9,-0.3,30.60,SW,216,1.0,5.0,44,0.00,,---,0.00,0.00,VWS V14.01,2013-11-21 14:28:00,
2013-11-21 06:33:00,17.9,0.2,30.60,SSW,203,2.0,3.0,45,0.00,,---,0.00,0.00,VWS V14.01,2013-11-21 14:33:00,
2013-11-21 06:38:00,18.0,0.2,30.60,SSW,213,4.0,5.0,45,0.00,,---,0.00,0.00,VWS V14.01,2013-11-21 14:38:00,
2013-11-21 06:43:00,17.9,0.6,30.60,SSW,202,5.0,5.0,46,0.00,,---,0.00,0.00,VWS V14.01,2013-11-21 14:43:00,
2013-11-21 06:48:00,17.7,0.4,30.61,SW,234,1.0,6.0,46,0.00,,---,0.00,0.00,VWS V14.01,2013-11-21 14:48:00,
2013-11-21 06:53:00,17.7,0.4,30.61,SW,233,3.0,6.0,46,0.00,,---,0.00,0.00,VWS V14.01,2013-11-21 14:53:00,
2013-11-21 06:58:00,17.7,0.9,30.61,SW,216,2.0,7.0,47,0.00,,---,0.00,0.00,VWS V14.01,2013-11-21 14:58:00,
2013-11-21 07:03:00,18.0,1.2,30.62,WSW,248,2.0,4.0,47,0.00,,---,0.00,0.00,VWS V14.01,2013-11-21 15:03:00,
2013-11-21 07:08:00,18.0,1.2,30.62,SW,229,3.0,8.0,47,0.00,,---,0.00,0.00,VWS V14.01,2013-11-21 15:08:00,
2013-11-21 07:13:00,17.9,1.1,30.62,SW,233,2.0,8.0,47,0.00,,---,0.00,5.00,VWS V14.01,2013-11-21 15:13:00,
2013-11-21 07:18:00,17.8,1.5,30.63,SW,221,3.0,8.0,48,0.00,,---,0.00,7.00,VWS V14.01,2013-11-21 15:18:00,
2013-11-21 07:23:00,17.9,1.5,30.63,SW,227,4.0,8.0,48,0.00,,---,0.00,9.00,VWS V14.01,2013-11-21 15:23:00,
2013-11-21 07:28:00,18.1,1.3,30.64,SW,232,3.0,8.0,47,0.00,,---,0.00,11.00,VWS V14.01,2013-11-21 15:28:00,
2013-11-21 07:33:00,18.4,2.0,30.64,WSW,238,1.0,3.0,48,0.00,,---,0.00,12.00,VWS V14.01,2013-11-21 15:33:00,
2013-11-21 07:38:00,18.5,1.6,30.64,WSW,242,3.0,4.0,47,0.00,,---,0.00,12.00,VWS V14.01,2013-11-21 15:38:00,
2013-11-21 07:43:00,18.5,1.6,30.64,WSW,244,4.0,4.0,47,0.00,,---,0.00,14.00,VWS V14.01,2013-11-21 15:43:00,
2013-11-21 07:48:00,18.6,1.7,30.65,SW,231,2.0,4.0,47,0.00,,---,0.00,16.00,VWS V14.01,2013-11-21 15:48:00,
2013-11-21 07:53:00,18.7,1.8,30.65,SW,227,2.0,4.0,47,0.00,,---,0.00,16.00,VWS V14.01,2013-11-21 15:53:00,
2013-11-21 07:58:00,18.7,1.4,30.65,WSW,241,2.0,4.0,46,0.00,,---,0.00,16.00,VWS V14.01,2013-11-21 15:58:00,
2013-11-21 08:03:00,18.8,1.5,30.66,SW,232,3.0,4.0,46,0.00,,---,0.00,18.00,VWS V14.01,2013-11-21 16:03:00,
2013-11-21 08:08:00,18.7,1.4,30.66,WSW,241,1.0,4.0,46,0.00,,---,0.00,18.00,VWS V14.01,2013-11-21 16:08:00,
2013-11-21 08:13:00,18.7,1.4,30.66,SW,236,2.0,4.0,46,0.00,,---,0.00,19.00,VWS V14.01,2013-11-21 16:13:00,
2013-11-21 08:18:00,18.8,1.5,30.66,SW,215,1.0,4.0,46,0.00,,---,0.00,19.00,VWS V14.01,2013-11-21 16:18:00,
2013-11-21 08:23:00,18.9,1.5,30.66,SW,229,4.0,5.0,46,0.00,,---,0.00,21.00,VWS V14.01,2013-11-21 16:23:00,
2013-11-21 08:28:00,18.9,1.5,30.66,SW,224,0.0,5.0,46,0.00,,---,0.00,21.00,VWS V14.01,2013-11-21 16:28:00,
2013-11-21 08:33:00,18.9,2.0,30.67,SW,225,1.0,2.0,47,0.00,,---,0.00,23.00,VWS V14.01,2013-11-21 16:33:00,
2013-11-21 08:38:00,18.9,2.0,30.67,SW,229,2.0,4.0,47,0.00,,---,0.00,30.00,VWS V14.01,2013-11-21 16:38:00,
2013-11-21 08:43:00,19.1,1.7,30.67,WSW,240,3.0,5.0,46,0.00,,---,0.00,25.00,VWS V14.01,2013-11-21 16:43:00,
2013-11-21 08:48:00,19.2,1.8,30.67,WSW,238,0.0,5.0,46,0.00,,---,0.00,25.00,VWS V14.01,2013-11-21 16:48:00,
2013-11-21 08:53:00,19.4,2.5,30.68,SW,229,0.0,5.0,47,0.00,,---,0.00,28.00,VWS V14.01,2013-11-21 16:53:00,
2013-11-21 08:58:00,19.5,2.6,30.67,SW,229,2.0,5.0,47,0.00,,---,0.00,26.00,VWS V14.01,2013-11-21 16:58:00,
2013-11-21 09:03:00,19.6,2.7,30.68,WSW,246,3.0,3.0,47,0.00,,---,0.00,26.00,VWS V14.01,2013-11-21 17:03:00,
2013-11-21 09:07:00,19.8,3.3,30.68,WSW,244,2.0,4.0,48,0.00,,---,0.00,26.00,VWS V14.01,2013-11-21 17:07:00,
2013-11-21 09:12:00,20.0,3.5,30.68,WSW,242,1.0,4.0,48,0.00,,---,0.00,33.00,VWS V14.01,2013-11-21 17:12:00,
2013-11-21 09:17:00,20.3,3.8,30.69,WSW,254,4.0,4.0,48,0.00,,---,0.00,26.00,VWS V14.01,2013-11-21 17:17:00,
2013-11-21 09:22:00,20.6,3.6,30.69,SW,222,3.0,4.0,47,0.00,,---,0.00,26.00,VWS V14.01,2013-11-21 17:22:00,
2013-11-21 09:27:00,20.7,3.7,30.69,SW,227,2.0,5.0,47,0.00,,---,0.00,49.00,VWS V14.01,2013-11-21 17:27:00,
2013-11-21 09:32:00,20.9,3.8,30.69,SW,224,1.0,4.0,47,0.00,,---,0.00,200.00,VWS V14.01,2013-11-21 17:32:00,
2013-11-21 09:37:00,21.2,4.1,30.69,SW,235,2.0,4.0,47,0.00,,---,0.00,301.00,VWS V14.01,2013-11-21 17:37:00,
2013-11-21 09:42:00,21.5,4.4,30.69,WSW,244,1.0,4.0,47,0.00,,---,0.00,255.00,VWS V14.01,2013-11-21 17:42:00,
2013-11-21 09:47:00,21.7,4.6,30.69,WSW,257,1.0,5.0,47,0.00,,---,0.00,334.00,VWS V14.01,2013-11-21 17:47:00,
2013-11-21 09:52:00,22.1,5.0,30.69,SW,232,0.0,5.0,47,0.00,,---,0.00,339.00,VWS V14.01,2013-11-21 17:52:00,
2013-11-21 09:57:00,22.3,4.7,30.69,WSW,248,0.0,5.0,46,0.00,,---,0.00,352.00,VWS V14.01,2013-11-21 17:57:00,
2013-11-21 10:02:00,22.7,5.0,30.69,WSW,238,0.0,3.0,46,0.00,,---,0.00,360.00,VWS V14.01,2013-11-21 18:02:00,
2013-11-21 10:07:00,23.0,5.3,30.69,WSW,243,2.0,4.0,46,0.00,,---,0.00,369.00,VWS V14.01,2013-11-21 18:07:00,
2013-11-21 10:12:00,23.3,5.1,30.69,SW,234,1.0,4.0,45,0.00,,---,0.00,376.00,VWS V14.01,2013-11-21 18:12:00,
2013-11-21 10:17:00,23.6,4.9,30.69,SSW,207,1.0,4.0,44,0.00,,---,0.00,387.00,VWS V14.01,2013-11-21 18:17:00,
2013-11-21 10:22:00,23.9,4.7,30.69,SW,229,3.0,4.0,43,0.00,,---,0.00,392.00,VWS V14.01,2013-11-21 18:22:00,
2013-11-21 10:27:00,24.2,5.4,30.70,SW,230,3.0,4.0,44,0.00,,---,0.00,397.00,VWS V14.01,2013-11-21 18:27:00,
2013-11-21 10:32:00,24.4,5.1,30.69,SW,230,3.0,5.0,43,0.00,,---,0.00,406.00,VWS V14.01,2013-11-21 18:32:00,
2013-11-21 10:37:00,24.8,5.0,30.70,WSW,246,3.0,6.0,42,0.00,,---,0.00,411.00,VWS V14.01,2013-11-21 18:37:00,
2013-11-21 10:42:00,25.1,5.2,30.70,SW,219,3.0,6.0,42,0.00,,---,0.00,415.00,VWS V14.01,2013-11-21 18:42:00,
2013-11-21 10:47:00,25.3,4.9,30.70,SW,235,0.0,6.0,41,0.00,,---,0.00,422.00,VWS V14.01,2013-11-21 18:47:00,
2013-11-21 10:52:00,25.5,5.6,30.69,SW,224,0.0,6.0,42,0.00,,---,0.00,427.00,VWS V14.01,2013-11-21 18:52:00,
2013-11-21 10:57:00,25.8,4.8,30.69,SW,222,2.0,6.0,40,0.00,,---,0.00,432.00,VWS V14.01,2013-11-21 18:57:00,
2013-11-21 11:02:00,26.1,4.5,30.70,SSW,211,0.0,5.0,39,0.00,,---,0.00,438.00,VWS V14.01,2013-11-21 19:02:00,
2013-11-21 11:07:00,26.3,4.2,30.70,SW,231,0.0,6.0,38,0.00,,---,0.00,441.00,VWS V14.01,2013-11-21 19:07:00,
2013-11-21 11:12:00,26.4,4.2,30.69,SW,227,2.0,6.0,38,0.00,,---,0.00,422.00,VWS V14.01,2013-11-21 19:12:00,
2013-11-21 11:17:00,26.7,5.1,30.69,SSE,167,2.0,6.0,39,0.00,,---,0.00,418.00,VWS V14.01,2013-11-21 19:17:00,
2013-11-21 11:22:00,27.2,4.4,30.70,SW,229,1.0,6.0,37,0.00,,---,0.00,425.00,VWS V14.01,2013-11-21 19:22:00,
2013-11-21 11:27:00,27.5,4.1,30.70,SW,221,2.0,7.0,36,0.00,,---,0.00,348.00,VWS V14.01,2013-11-21 19:27:00,
2013-11-21 11:32:00,27.8,4.3,30.69,SW,235,2.0,4.0,36,0.00,,---,0.00,144.00,VWS V14.01,2013-11-21 19:32:00,
2013-11-21 11:37:00,28.0,4.5,30.69,SW,219,0.0,5.0,36,0.00,,---,0.00,39.00,VWS V14.01,2013-11-21 19:37:00,
2013-11-21 11:42:00,28.0,3.9,30.69,SW,234,5.0,6.0,35,0.00,,---,0.00,37.00,VWS V14.01,2013-11-21 19:42:00,
2013-11-21 11:47:00,28.0,3.9,30.69,SSW,212,6.0,6.0,35,0.00,,---,0.00,33.00,VWS V14.01,2013-11-21 19:47:00,
2013-11-21 11:52:00,28.0,3.9,30.69,South,189,0.0,6.0,35,0.00,,---,0.00,33.00,VWS V14.01,2013-11-21 19:52:00,
2013-11-21 11:57:00,28.3,3.5,30.69,SW,232,3.0,6.0,34,0.00,,---,0.00,33.00,VWS V14.01,2013-11-21 19:57:00,
2013-11-21 12:02:00,28.3,3.5,30.69,SW,225,2.0,3.0,34,0.00,,---,0.00,91.00,VWS V14.01,2013-11-21 20:02:00,
2013-11-21 12:07:00,28.6,5.0,30.68,WSW,249,0.0,6.0,36,0.00,,---,0.00,33.00,VWS V14.01,2013-11-21 20:07:00,
2013-11-21 12:12:00,28.7,5.1,30.68,SW,232,1.0,6.0,36,0.00,,---,0.00,33.00,VWS V14.01,2013-11-21 20:12:00,
2013-11-21 12:17:00,29.1,4.2,30.68,SSE,147,2.0,6.0,34,0.00,,---,0.00,56.00,VWS V14.01,2013-11-21 20:17:00,
2013-11-21 12:22:00,29.6,4.0,30.69,SSW,206,0.0,6.0,33,0.00,,---,0.00,54.00,VWS V14.01,2013-11-21 20:22:00,
2013-11-21 12:27:00,30.0,5.1,30.69,South,169,5.0,8.0,34,0.00,,---,0.00,148.00,VWS V14.01,2013-11-21 20:27:00,
2013-11-21 12:32:00,30.2,3.9,30.68,WSW,237,2.0,4.0,32,0.00,,---,0.00,100.00,VWS V14.01,2013-11-21 20:32:00,
2013-11-21 12:37:00,30.2,3.9,30.68,South,187,3.0,5.0,32,0.00,,---,0.00,439.00,VWS V14.01,2013-11-21 20:37:00,
2013-11-21 12:42:00,30.1,4.5,30.68,SSW,213,0.0,6.0,33,0.00,,---,0.00,392.00,VWS V14.01,2013-11-21 20:42:00,
2013-11-21 12:47:00,30.2,4.6,30.68,South,180,1.0,6.0,33,0.00,,---,0.00,77.00,VWS V14.01,2013-11-21 20:47:00,
2013-11-21 12:52:00,30.3,4.0,30.68,WSW,249,1.0,7.0,32,0.00,,---,0.00,86.00,VWS V14.01,2013-11-21 20:52:00,
2013-11-21 12:57:00,29.9,4.3,30.68,SW,236,1.0,7.0,33,0.00,,---,0.00,422.00,VWS V14.01,2013-11-21 20:57:00,
2013-11-21 13:02:00,29.8,4.9,30.68,South,190,0.0,3.0,34,0.00,,---,0.00,425.00,VWS V14.01,2013-11-21 21:02:00,
2013-11-21 13:07:00,30.0,5.1,30.68,South,171,1.0,5.0,34,0.00,,---,0.00,418.00,VWS V14.01,2013-11-21 21:07:00,
2013-11-21 13:12:00,30.3,5.3,30.68,SW,227,1.0,5.0,34,0.00,,---,0.00,415.00,VWS V14.01,2013-11-21 21:12:00,
2013-11-21 13:17:00,30.4,4.8,30.68,SW,223,1.0,7.0,33,0.00,,---,0.00,408.00,VWS V14.01,2013-11-21 21:17:00,
2013-11-21 13:22:00,30.5,4.8,30.68,SSW,213,3.0,7.0,33,0.00,,---,0.00,399.00,VWS V14.01,2013-11-21 21:22:00,
2013-11-21 13:27:00,30.4,4.8,30.68,WSW,239,2.0,7.0,33,0.00,,---,0.00,394.00,VWS V14.01,2013-11-21 21:27:00,
2013-11-21 13:32:00,30.4,4.8,30.68,WSW,242,0.0,5.0,33,0.00,,---,0.00,388.00,VWS V14.01,2013-11-21 21:32:00,
2013-11-21 13:37:00,30.5,5.5,30.68,SSE,163,1.0,5.0,34,0.00,,---,0.00,380.00,VWS V14.01,2013-11-21 21:37:00,
2013-11-21 13:42:00,30.6,4.9,30.68,SSW,200,1.0,9.0,33,0.00,,---,0.00,373.00,VWS V14.01,2013-11-21 21:42:00,
2013-11-21 13:47:00,30.6,5.6,30.68,SW,231,3.0,9.0,34,0.00,,---,0.00,366.00,VWS V14.01,2013-11-21 21:47:00,
2013-11-21 13:52:00,30.4,4.8,30.68,SSW,198,0.0,9.0,33,0.00,,---,0.00,355.00,VWS V14.01,2013-11-21 21:52:00,
2013-11-21 13:57:00,30.4,5.4,30.68,SW,221,2.0,9.0,34,0.00,,---,0.00,348.00,VWS V14.01,2013-11-21 21:57:00,
2013-11-21 14:02:00,30.5,5.5,30.68,South,170,3.0,4.0,34,0.00,,---,0.00,339.00,VWS V14.01,2013-11-21 22:02:00,
2013-11-21 14:07:00,30.8,5.8,30.68,West,261,2.0,4.0,34,0.00,,---,0.00,332.00,VWS V14.01,2013-11-21 22:07:00,
2013-11-21 14:12:00,31.0,5.3,30.68,SW,229,0.0,4.0,33,0.00,,---,0.00,322.00,VWS V14.01,2013-11-21 22:12:00,
2013-11-21 14:17:00,31.0,5.3,30.68,SW,232,3.0,5.0,33,0.00,,---,0.00,309.00,VWS V14.01,2013-11-21 22:17:00,
2013-11-21 14:22:00,30.8,5.1,30.68,SW,224,0.0,5.0,33,0.00,,---,0.00,301.00,VWS V14.01,2013-11-21 22:22:00,
2013-11-21 14:27:00,30.9,5.8,30.68,SSE,167,1.0,5.0,34,0.00,,---,0.00,290.00,VWS V14.01,2013-11-21 22:27:00,
2013-11-21 14:32:00,31.1,5.4,30.68,WSW,241,0.0,3.0,33,0.00,,---,0.00,279.00,VWS V14.01,2013-11-21 22:32:00,
2013-11-21 14:37:00,31.1,5.4,30.68,SW,215,0.0,4.0,33,0.00,,---,0.00,269.00,VWS V14.01,2013-11-21 22:37:00,
2013-11-21 14:42:00,31.0,5.3,30.68,SW,235,3.0,4.0,33,0.00,,---,0.00,255.00,VWS V14.01,2013-11-21 22:42:00,
2013-11-21 14:47:00,30.7,5.0,30.68,SSW,198,1.0,4.0,33,0.00,,---,0.00,239.00,VWS V14.01,2013-11-21 22:47:00,
2013-11-21 14:52:00,30.6,4.9,30.68,WSW,250,0.0,5.0,33,0.00,,---,0.00,227.00,VWS V14.01,2013-11-21 22:52:00,
2013-11-21 14:57:00,30.6,4.9,30.69,SW,227,0.0,5.0,33,0.00,,---,0.00,211.00,VWS V14.01,2013-11-21 22:57:00,
2013-11-21 15:02:00,30.5,4.2,30.69,WSW,253,3.0,5.0,32,0.00,,---,0.00,197.00,VWS V14.01,2013-11-21 23:02:00,
2013-11-21 15:07:00,30.5,4.2,30.69,SW,225,0.0,5.0,32,0.00,,---,0.00,181.00,VWS V14.01,2013-11-21 23:07:00,
2013-11-21 15:12:00,30.5,4.2,30.69,WSW,242,1.0,5.0,32,0.00,,---,0.00,169.00,VWS V14.01,2013-11-21 23:12:00,
2013-11-21 15:17:00,30.5,3.5,30.69,SW,231,2.0,5.0,31,0.00,,---,0.00,153.00,VWS V14.01,2013-11-21 23:17:00,
2013-11-21 15:22:00,30.5,4.2,30.69,SW,223,0.0,5.0,32,0.00,,---,0.00,137.00,VWS V14.01,2013-11-21 23:22:00,
2013-11-21 15:27:00,30.5,4.8,30.69,South,191,0.0,5.0,33,0.00,,---,0.00,121.00,VWS V14.01,2013-11-21 23:27:00,
2013-11-21 15:32:00,30.6,4.9,30.69,SW,229,1.0,4.0,33,0.00,,---,0.00,107.00,VWS V14.01,2013-11-21 23:32:00,
2013-11-21 15:37:00,30.6,4.9,30.69,SSW,204,3.0,5.0,33,0.00,,---,0.00,93.00,VWS V14.01,2013-11-21 23:37:00,
2013-11-21 15:42:00,30.5,4.8,30.69,WSW,248,1.0,5.0,33,0.00,,---,0.00,81.00,VWS V14.01,2013-11-21 23:42:00,
2013-11-21 15:47:00,30.2,3.9,30.69,SSW,192,2.0,5.0,32,0.00,,---,0.00,69.00,VWS V14.01,2013-11-21 23:47:00,
2013-11-21 15:52:00,30.0,3.7,30.69,WSW,246,0.0,5.0,32,0.00,,---,0.00,56.00,VWS V14.01,2013-11-21 23:52:00,
2013-11-21 15:57:00,29.7,4.1,30.69,WSW,240,2.0,5.0,33,0.00,,---,0.00,46.00,VWS V14.01,2013-11-21 23:57:00,
2013-11-21 16:02:00,29.5,4.0,30.69,SSW,202,0.0,0.0,33,0.00,,---,0.00,33.00,VWS V14.01,2013-11-22 00:02:00,
2013-11-21 16:07:00,29.4,4.5,30.69,SW,219,0.0,3.0,34,0.00,,---,0.00,25.00,VWS V14.01,2013-11-22 00:07:00,
2013-11-21 16:12:00,29.2,5.0,30.70,SSW,194,0.0,3.0,35,0.00,,---,0.00,19.00,VWS V14.01,2013-11-22 00:12:00,
2013-11-21 16:17:00,29.0,4.8,30.70,SW,222,0.0,3.0,35,0.00,,---,0.00,14.00,VWS V14.01,2013-11-22 00:17:00,
2013-11-21 16:22:00,28.6,4.4,30.70,SW,232,0.0,3.0,35,0.00,,---,0.00,9.00,VWS V14.01,2013-11-22 00:22:00,
2013-11-21 16:27:00,28.2,4.1,30.71,SW,232,0.0,3.0,35,0.00,,---,0.00,7.00,VWS V14.01,2013-11-22 00:27:00,
2013-11-21 16:32:00,27.7,4.2,30.71,SW,226,0.0,2.0,36,0.00,,---,0.00,5.00,VWS V14.01,2013-11-22 00:32:00,
2013-11-21 16:37:00,27.3,3.9,30.71,SW,221,0.0,3.0,36,0.00,,---,0.00,0.00,VWS V14.01,2013-11-22 00:37:00,
2013-11-21 16:42:00,27.0,4.2,30.71,SSW,194,1.0,3.0,37,0.00,,---,0.00,0.00,VWS V14.01,2013-11-22 00:42:00,
2013-11-21 16:47:00,26.7,3.9,30.71,SW,230,1.0,3.0,37,0.00,,---,0.00,0.00,VWS V14.01,2013-11-22 00:47:00,
2013-11-21 16:52:00,26.4,4.2,30.71,SW,236,0.0,3.0,38,0.00,,---,0.00,0.00,VWS V14.01,2013-11-22 00:52:00,
2013-11-21 16:57:00,26.2,4.1,30.72,SW,231,0.0,3.0,38,0.00,,---,0.00,0.00,VWS V14.01,2013-11-22 00:57:00,
2013-11-21 17:02:00,26.1,4.0,30.71,SW,231,1.0,2.0,38,0.00,,---,0.00,0.00,VWS V14.01,2013-11-22 01:02:00,
2013-11-21 17:07:00,26.0,4.4,30.71,SW,231,0.0,2.0,39,0.00,,---,0.00,0.00,VWS V14.01,2013-11-22 01:07:00,
2013-11-21 17:12:00,25.8,4.3,30.72,SW,231,0.0,2.0,39,0.00,,---,0.00,0.00,VWS V14.01,2013-11-22 01:12:00,
2013-11-21 17:17:00,25.6,4.6,30.72,SW,231,0.0,2.0,40,0.00,,---,0.00,0.00,VWS V14.01,2013-11-22 01:17:00,
2013-11-21 17:22:00,25.4,5.0,30.72,SW,231,0.0,2.0,41,0.00,,---,0.00,0.00,VWS V14.01,2013-11-22 01:22:00,
2013-11-21 17:27:00,24.9,5.1,30.72,SW,231,0.0,2.0,42,0.00,,---,0.00,0.00,VWS V14.01,2013-11-22 01:27:00,
2013-11-21 17:32:00,24.3,5.5,30.72,SW,231,0.0,0.0,44,0.00,,---,0.00,0.00,VWS V14.01,2013-11-22 01:32:00,
2013-11-21 17:37:00,23.7,5.5,30.72,SW,231,0.0,0.0,45,0.00,,---,0.00,0.00,VWS V14.01,2013-11-22 01:37:00,
2013-11-21 17:42:00,23.1,5.4,30.73,SW,231,1.0,2.0,46,0.00,,---,0.00,0.00,VWS V14.01,2013-11-22 01:42:00,
2013-11-21 17:47:00,22.7,5.0,30.73,SW,231,0.0,2.0,46,0.00,,---,0.00,0.00,VWS V14.01,2013-11-22 01:47:00,
2013-11-21 17:52:00,22.4,5.2,30.73,SW,231,0.0,2.0,47,0.00,,---,0.00,0.00,VWS V14.01,2013-11-22 01:52:00,
2013-11-21 17:57:00,22.1,5.4,30.73,SW,229,0.0,2.0,48,0.00,,---,0.00,0.00,VWS V14.01,2013-11-22 01:57:00,
2013-11-21 18:02:00,21.8,5.6,30.73,SW,229,0.0,0.0,49,0.00,,---,0.00,0.00,VWS V14.01,2013-11-22 02:02:00,
2013-11-21 18:07:00,21.6,5.4,30.74,SW,229,0.0,0.0,49,0.00,,---,0.00,0.00,VWS V14.01,2013-11-22 02:07:00,
2013-11-21 18:08:00,21.5,5.3,30.73,SW,229,0.0,0.0,49,0.00,,---,0.00,0.00,VWS V14.01,2013-11-22 02:08:00,
2013-11-21 18:09:00,21.5,5.3,30.73,SW,229,0.0,0.0,49,0.00,,---,0.00,0.00,VWS V14.01,2013-11-22 02:09:00,
2013-11-21 18:14:00,21.2,5.5,30.74,SW,228,0.0,0.0,50,0.00,,---,0.00,0.00,VWS V14.01,2013-11-22 02:14:00,
2013-11-21 18:19:00,21.0,5.7,30.75,SW,228,0.0,0.0,51,0.00,,---,0.00,0.00,VWS V14.01,2013-11-22 02:19:00,
2013-11-21 18:24:00,20.9,5.2,30.75,SW,227,0.0,1.0,50,0.00,,---,0.00,0.00,VWS V14.01,2013-11-22 02:24:00,
2013-11-21 18:29:00,20.9,5.2,30.75,SW,227,0.0,1.0,50,0.00,,---,0.00,0.00,VWS V14.01,2013-11-22 02:29:00,
2013-11-21 18:34:00,20.9,5.2,30.75,SSW,203,0.0,1.0,50,0.00,,---,0.00,0.00,VWS V14.01,2013-11-22 02:34:00,
2013-11-21 18:39:00,21.2,5.0,30.75,SSW,193,0.0,1.0,49,0.00,,---,0.00,0.00,VWS V14.01,2013-11-22 02:39:00,
2013-11-21 18:44:00,21.3,5.1,30.75,SSW,193,0.0,1.0,49,0.00,,---,0.00,0.00,VWS V14.01,2013-11-22 02:44:00,
2013-11-21 18:49:00,21.2,5.0,30.75,SW,233,1.0,1.0,49,0.00,,---,0.00,0.00,VWS V14.01,2013-11-22 02:49:00,
2013-11-21 18:54:00,21.0,4.8,30.75,SW,235,0.0,2.0,49,0.00,,---,0.00,0.00,VWS V14.01,2013-11-22 02:54:00,
2013-11-21 18:59:00,20.8,5.1,30.75,SW,235,0.0,2.0,50,0.00,,---,0.00,0.00,VWS V14.01,2013-11-22 02:59:00,
2013-11-21 19:04:00,20.6,4.9,30.75,SW,235,1.0,1.0,50,0.00,,---,0.00,0.00,VWS V14.01,2013-11-22 03:04:00,
2013-11-21 19:09:00,20.5,5.3,30.75,WSW,248,0.0,1.0,51,0.00,,---,0.00,0.00,VWS V14.01,2013-11-22 03:09:00,
2013-11-21 19:14:00,20.4,5.2,30.75,SSW,194,0.0,1.0,51,0.00,,---,0.00,0.00,VWS V14.01,2013-11-22 03:14:00,
2013-11-21 19:19:00,20.5,5.3,30.76,SW,231,0.0,2.0,51,0.00,,---,0.00,0.00,VWS V14.01,2013-11-22 03:19:00,
2013-11-21 19:24:00,20.5,5.7,30.76,WSW,252,0.0,2.0,52,0.00,,---,0.00,0.00,VWS V14.01,2013-11-22 03:24:00,
2013-11-21 19:29:00,20.2,5.4,30.76,WSW,253,0.0,2.0,52,0.00,,---,0.00,0.00,VWS V14.01,2013-11-22 03:29:00,
2013-11-21 19:34:00,19.9,5.5,30.76,West,260,0.0,2.0,53,0.00,,---,0.00,0.00,VWS V14.01,2013-11-22 03:34:00,
2013-11-21 19:39:00,19.7,6.2,30.76,West,260,0.0,2.0,55,0.00,,---,0.00,0.00,VWS V14.01,2013-11-22 03:39:00,
2013-11-21 19:44:00,19.5,6.0,30.76,West,260,0.0,2.0,55,0.00,,---,0.00,0.00,VWS V14.01,2013-11-22 03:44:00,
2013-11-21 19:49:00,19.4,6.3,30.76,West,260,0.0,2.0,56,0.00,,---,0.00,0.00,VWS V14.01,2013-11-22 03:49:00,
2013-11-21 19:54:00,19.3,5.8,30.76,West,260,0.0,2.0,55,0.00,,---,0.00,0.00,VWS V14.01,2013-11-22 03:54:00,
2013-11-21 19:59:00,19.2,5.7,30.77,West,260,0.0,2.0,55,0.00,,---,0.00,0.00,VWS V14.01,2013-11-22 03:59:00,
2013-11-21 20:04:00,19.1,5.6,30.77,West,277,0.0,3.0,55,0.00,,---,0.00,0.00,VWS V14.01,2013-11-22 04:04:00,
2013-11-21 20:09:00,19.1,5.6,30.77,NNW,344,0.0,3.0,55,0.00,,---,0.00,0.00,VWS V14.01,2013-11-22 04:09:00,
2013-11-21 20:14:00,19.1,5.6,30.77,NNW,335,1.0,3.0,55,0.00,,---,0.00,0.00,VWS V14.01,2013-11-22 04:14:00,
2013-11-21 20:19:00,19.6,5.7,30.77,NNW,331,0.0,3.0,54,0.00,,---,0.00,0.00,VWS V14.01,2013-11-22 04:19:00,
2013-11-21 20:24:00,19.6,6.1,30.78,NNW,331,0.0,3.0,55,0.00,,---,0.00,0.00,VWS V14.01,2013-11-22 04:24:00,
2013-11-21 20:29:00,19.3,5.8,30.77,NNW,331,0.0,3.0,55,0.00,,---,0.00,0.00,VWS V14.01,2013-11-22 04:29:00,
2013-11-21 20:34:00,19.0,6.3,30.78,NNW,331,0.0,1.0,57,0.00,,---,0.00,0.00,VWS V14.01,2013-11-22 04:34:00,
2013-11-21 20:39:00,18.8,6.5,30.78,NNW,331,0.0,1.0,58,0.00,,---,0.00,0.00,VWS V14.01,2013-11-22 04:39:00,
2013-11-21 20:44:00,18.8,6.5,30.78,NNW,331,0.0,1.0,58,0.00,,---,0.00,0.00,VWS V14.01,2013-11-22 04:44:00,
2013-11-21 20:49:00,18.8,6.5,30.78,NNW,331,0.0,1.0,58,0.00,,---,0.00,0.00,VWS V14.01,2013-11-22 04:49:00,
2013-11-21 20:54:00,18.8,6.5,30.78,NNW,331,0.0,1.0,58,0.00,,---,0.00,0.00,VWS V14.01,2013-11-22 04:54:00,
2013-11-21 20:59:00,18.7,6.4,30.78,NNW,331,0.0,1.0,58,0.00,,---,0.00,0.00,VWS V14.01,2013-11-22 04:59:00,
2013-11-21 21:01:00,18.7,6.4,30.77,NNW,331,0.0,1.0,58,0.00,,---,0.00,0.00,VWS V14.01,2013-11-22 05:01:00,
2013-11-21 21:02:00,18.7,6.4,30.78,NNW,331,0.0,0.0,58,0.00,,---,0.00,0.00,VWS V14.01,2013-11-22 05:02:00,
2013-11-21 21:07:00,18.6,6.3,30.77,NNW,331,0.0,0.0,58,0.00,,---,0.00,0.00,VWS V14.01,2013-11-22 05:07:00,
2013-11-21 21:12:00,18.5,6.6,30.78,NNW,331,0.0,0.0,59,0.00,,---,0.00,0.00,VWS V14.01,2013-11-22 05:12:00,
2013-11-21 21:16:00,18.5,6.6,30.78,NNW,331,0.0,0.0,59,0.00,,---,0.00,0.00,VWS V14.01,2013-11-22 05:16:00,
2013-11-21 21:21:00,18.4,6.8,30.78,NNW,331,0.0,0.0,60,0.00,,---,0.00,0.00,VWS V14.01,2013-11-22 05:21:00,
2013-11-21 21:26:00,18.3,6.8,30.78,NNW,331,0.0,0.0,60,0.00,,---,0.00,0.00,VWS V14.01,2013-11-22 05:26:00,
2013-11-21 21:31:00,18.1,6.6,30.78,NNW,331,0.0,0.0,60,0.00,,---,0.00,0.00,VWS V14.01,2013-11-22 05:31:00,
2013-11-21 21:36:00,18.1,6.6,30.78,NNW,331,0.0,0.0,60,0.00,,---,0.00,0.00,VWS V14.01,2013-11-22 05:36:00,
2013-11-21 21:41:00,18.1,6.9,30.78,NNW,331,0.0,0.0,61,0.00,,---,0.00,0.00,VWS V14.01,2013-11-22 05:41:00,
2013-11-21 21:46:00,18.1,7.3,30.78,NNW,331,0.0,0.0,62,0.00,,---,0.00,0.00,VWS V14.01,2013-11-22 05:46:00,
2013-11-21 21:51:00,18.1,6.9,30.78,NNW,331,0.0,0.0,61,0.00,,---,0.00,0.00,VWS V14.01,2013-11-22 05:51:00,
2013-11-21 21:56:00,18.1,6.9,30.78,NNW,331,0.0,0.0,61,0.00,,---,0.00,0.00,VWS V14.01,2013-11-22 05:56:00,
2013-11-21 22:01:00,18.0,6.8,30.78,NNW,331,0.0,0.0,61,0.00,,---,0.00,0.00,VWS V14.01,2013-11-22 06:01:00,
2013-11-21 22:06:00,17.9,6.7,30.78,NNW,331,0.0,0.0,61,0.00,,---,0.00,0.00,VWS V14.01,2013-11-22 06:06:00,
2013-11-21 22:11:00,17.8,7.0,30.78,NNW,331,0.0,0.0,62,0.00,,---,0.00,0.00,VWS V14.01,2013-11-22 06:11:00,
2013-11-21 22:16:00,17.7,6.9,30.78,NNW,331,0.0,0.0,62,0.00,,---,0.00,0.00,VWS V14.01,2013-11-22 06:16:00,
2013-11-21 22:21:00,17.6,7.2,30.78,NNW,331,0.0,0.0,63,0.00,,---,0.00,0.00,VWS V14.01,2013-11-22 06:21:00,
2013-11-21 22:26:00,17.5,7.4,30.78,NW,304,2.0,2.0,64,0.00,,---,0.00,0.00,VWS V14.01,2013-11-22 06:26:00,
2013-11-21 22:31:00,17.3,7.2,30.78,WNW,299,1.0,2.0,64,0.00,,---,0.00,0.00,VWS V14.01,2013-11-22 06:31:00,
2013-11-21 22:36:00,17.3,7.2,30.78,WNW,299,1.0,2.0,64,0.00,,---,0.00,0.00,VWS V14.01,2013-11-22 06:36:00,
2013-11-21 22:41:00,17.2,7.1,30.78,WNW,299,1.0,2.0,64,0.00,,---,0.00,0.00,VWS V14.01,2013-11-22 06:41:00,
2013-11-21 22:46:00,17.2,7.1,30.78,WNW,299,1.0,2.0,64,0.00,,---,0.00,0.00,VWS V14.01,2013-11-22 06:46:00,
2013-11-21 22:51:00,17.2,7.5,30.78,WNW,299,0.0,2.0,65,0.00,,---,0.00,0.00,VWS V14.01,2013-11-22 06:51:00,
2013-11-21 22:56:00,17.1,7.0,30.78,WNW,299,0.0,2.0,64,0.00,,---,0.00,0.00,VWS V14.01,2013-11-22 06:56:00,
2013-11-21 23:01:00,17.0,6.9,30.78,WNW,299,0.0,0.0,64,0.00,,---,0.00,0.00,VWS V14.01,2013-11-22 07:01:00,
2013-11-21 23:06:00,17.1,7.0,30.78,WNW,299,0.0,0.0,64,0.00,,---,0.00,0.00,VWS V14.01,2013-11-22 07:06:00,
2013-11-21 23:11:00,17.2,7.1,30.78,WNW,299,0.0,0.0,64,0.00,,---,0.00,0.00,VWS V14.01,2013-11-22 07:11:00,
2013-11-21 23:16:00,17.3,6.9,30.78,WNW,299,1.0,1.0,63,0.00,,---,0.00,0.00,VWS V14.01,2013-11-22 07:16:00,
2013-11-21 23:21:00,17.4,7.0,30.78,WNW,299,0.0,1.0,63,0.00,,---,0.00,0.00,VWS V14.01,2013-11-22 07:21:00,
2013-11-21 23:26:00,17.5,7.1,30.78,WNW,299,0.0,1.0,63,0.00,,---,0.00,0.00,VWS V14.01,2013-11-22 07:26:00,
2013-11-21 23:31:00,17.4,7.0,30.77,WNW,299,0.0,0.0,63,0.00,,---,0.00,0.00,VWS V14.01,2013-11-22 07:31:00,
2013-11-21 23:36:00,17.5,7.1,30.77,WNW,299,0.0,0.0,63,0.00,,---,0.00,0.00,VWS V14.01,2013-11-22 07:36:00,
2013-11-21 23:41:00,17.4,7.0,30.77,WNW,299,0.0,0.0,63,0.00,,---,0.00,0.00,VWS V14.01,2013-11-22 07:41:00,
2013-11-21 23:46:00,17.2,6.8,30.77,WNW,299,0.0,0.0,63,0.00,,---,0.00,0.00,VWS V14.01,2013-11-22 07:46:00,
2013-11-21 23:51:00,17.1,7.0,30.77,WNW,299,0.0,0.0,64,0.00,,---,0.00,0.00,VWS V14.01,2013-11-22 07:51:00,
2013-11-21 23:56:00,17.1,7.0,30.77,WNW,299,0.0,0.0,64,0.00,,---,0.00,0.00,VWS V14.01,2013-11-22 07:56:00,